Home > Weather > Chennai > Past weeks

Flag for India Weather for the Past 2 Weeks in Chennai, Tamil Nadu, India

Now
81 °F

Passing clouds.


Feels Like: 85 °F
Forecast: 73 / 91 °F
Wind: 6 mph from East

Location: Madras / Minambakkam

Current Time: Feb 12, 2016 at 10:33:53 PM

Latest Report: Feb 12, 2016 at 10:00 PM


Visibility: 4 mi

Pressure: 29.86 "Hg

Humidity: 74%

Dew point: 72 °F

Location of ChennaiLocation

Historic Weather in Chennai — Graph

°F

Chennai Temperature Yesterday

Maximum temperature yesterday: 90 °F (at 12:00 PM)
Minimum temperature yesterday: 73 °F (at 4:30 AM)
Average temperature yesterday: 82 °F

High & Low Weather Summary for the Past Weeks

 TemperatureHumidityPressure
High93 °F (Feb 10, 2:00 PM)100% (Feb 1, 6:30 AM)30.01 "Hg (Feb 1, 6:30 AM)
Low68 °F (Feb 2, 6:30 AM)30% (Feb 2, 1:30 PM)29.80 "Hg (Feb 6, 3:30 PM)
Average80 °F72%29.89 "Hg
* Reported Jan 28 9:30 PM — Feb 12 9:30 PM, Chennai, Weather by CustomWeather, © 2016

Note: Actual official high and low records may vary slightly from our data, if they occured in-between our weather recording intervals... More about our weather records

Advertising

Chennai Weather History for the Previous 24 Hours

 ConditionsComfort  
Time TempWeatherWind HumidityBarometerVisibility
9:30 PM
Fri, Feb 12
81 °FPassing clouds.6 mph74%29.86 "Hg4 mi
9:00 PM81 °FPassing clouds.6 mph74%29.86 "Hg4 mi
8:30 PM81 °FPassing clouds.7 mph70%29.86 "Hg4 mi
8:00 PM81 °FPassing clouds.5 mph70%29.86 "Hg4 mi
7:30 PM81 °FPassing clouds.7 mph70%29.83 "Hg4 mi
7:00 PM81 °FPassing clouds.7 mph70%29.83 "Hg4 mi
6:30 PM81 °FPassing clouds.7 mph70%29.83 "Hg4 mi
6:00 PM82 °FPassing clouds.6 mph66%29.83 "Hg4 mi
5:30 PM84 °FPassing clouds.6 mph62%29.80 "Hg4 mi
5:00 PM86 °FPassing clouds.7 mph55%29.80 "Hg4 mi
4:30 PM86 °FPassing clouds.7 mph55%29.80 "Hg5 mi
4:00 PM86 °FPassing clouds.6 mph55%29.80 "Hg5 mi
3:30 PM86 °FPassing clouds.8 mph52%29.80 "Hg5 mi
3:00 PM88 °FPassing clouds.6 mph52%29.80 "Hg5 mi
2:30 PM90 °FPassing clouds.7 mph49%29.80 "Hg4 mi
2:00 PM90 °FPassing clouds.9 mph49%29.83 "Hg4 mi
1:30 PM90 °FPassing clouds.8 mph49%29.83 "Hg4 mi
1:00 PM90 °FPassing clouds.8 mph46%29.83 "Hg4 mi
12:30 PM88 °FPassing clouds.6 mph52%29.86 "Hg4 mi
12:00 PM88 °FPassing clouds.5 mph52%29.86 "Hg4 mi
11:30 AM86 °FScattered clouds.6 mph55%29.89 "Hg4 mi
11:00 AM86 °FScattered clouds.7 mph55%29.89 "Hg4 mi
10:30 AM86 °FScattered clouds.5 mph59%29.92 "Hg4 mi
10:00 AM82 °FScattered clouds.5 mph66%29.92 "Hg3 mi
9:30 AM82 °FHaze.6 mph70%29.92 "Hg3 mi
9:00 AM81 °FHaze.6 mph74%29.92 "Hg2 mi
8:30 AM79 °FFog.3 mph74%29.89 "Hg2 mi
8:00 AM77 °FFog.3 mph83%29.89 "Hg1 mi
7:30 AM75 °FFog.3 mph83%29.86 "Hg1 mi
7:00 AM73 °FFog.5 mph89%29.86 "Hg1 mi
6:30 AM73 °FFog.5 mph89%29.83 "Hg1 mi
6:00 AM73 °FFog.5 mph89%29.83 "Hg2 mi
5:30 AM73 °FFog.No wind89%29.83 "Hg2 mi
5:00 AM73 °FFog.No wind89%29.83 "Hg2 mi
4:30 AM73 °FFog.No wind89%29.80 "Hg2 mi
3:30 AM73 °FHaze.No wind89%29.80 "Hg2 mi
3:00 AM73 °FPassing clouds.No wind89%29.83 "Hg3 mi
2:30 AM73 °FPassing clouds.No wind89%29.83 "Hg3 mi
2:00 AM73 °FPassing clouds.No wind89%29.83 "Hg3 mi
1:30 AM73 °FPassing clouds.No wind89%29.83 "Hg4 mi
1:00 AM75 °FPassing clouds.No wind78%29.86 "Hg4 mi
12:30 AM75 °FPassing clouds.No wind83%29.86 "Hg4 mi
12:00 AM77 °FPassing clouds.2 mph79%29.86 "Hg4 mi
11:30 PM
Thu, Feb 11
79 °FPassing clouds.2 mph70%29.86 "Hg4 mi
11:00 PM79 °FPassing clouds.3 mph70%29.89 "Hg4 mi
10:30 PM79 °FPassing clouds.5 mph70%29.89 "Hg4 mi
10:00 PM81 °FPassing clouds.5 mph66%29.89 "Hg4 mi
Weather by CustomWeather, © 2016

See weather overviewHow to use our weather pages